www.pogodaiklimat.ru

Погода и климат >> Архив погоды >> Казахстан >> Баршатас


АРХИВ ПОГОДЫ в Баршатасе

Время (UTC), дата Ветер
(напр.,м/с)
 
Видим.   Явления Облачность Т
(С)
Тd
(С)
f
(%)
Тe
(С)
Тes
(С)
Комфортность P
(гПа)
Po
(гПа)
Тmin
(С)
Tmax
(С)
R
(мм)
R24
(мм)
S
(см)
00 9.09 В 2 20 км {ливн. осадки} 9/9 600 м
[Cb calv]
+10.2 +5.6 73 +9 +9 1013.5 938.4
03 9.09 С 3 20 км 8/8 600 м
[Cb calv]
+13.6 +5.6 58 +13 +13 1013.6 939.4
06 9.09 С 3 20 км 9/9 600 м
[Cb calv]
+15.7 +4.8 48 +15 +16 1012.2 938.6 +10.4 0.0
09 9.09 Ю 4 20 км 9/8 600 м
[Cb calv Ac trans]
+16.8 +2.0 37 +16 +17 1011.8 938.7
12 9.09 ЮВ 4 20 км 9/8 600 м
[Cb calv Ac trans Ci fib]
+14.5 +6.6 59 +13 +13 1013.7 940.0
15 9.09 В 4 н/о {ливн. осадки} 6/6 600 м
[Cb calv]
+10.4 +8.8 90 +8 +8 1014.5 939.5 +17.5
18 9.09 ЮВ 2 н/о {ливн. осадки} 6/3 1000 м
[Sc Ac trans Ci fib]
+9.2 +7.2 87 +7 +7 1014.9 939.5 +17.5 2
21 9.09 В 2 н/о 3/3 1000 м
[Sc]
+7.2 +6.5 95 +5 +5 1017.1 941.3
00 10.09 Ю 2 2000 м дымка 8/8 600 м
[Cb calv]
+4.8 +3.9 94 +2 +2 1018.1 941.3
03 10.09 С 2 20 км {туман} 4/4 1000 м
[Sc]
+10.0 +6.5 79 +9 +11 1018.1 942.7
06 10.09 З 4 20 км {туман} 8/6 600 м
[Cb calv Ac trans Ci fib]
+15.4 +4.9 50 +15 +17 1016.8 942.8 +4.8
09 10.09 СЗ 3 20 км в посл. час ливневой дождь 9/8 600 м
[Cb calv Ci fib]
+16.7 +4.4 44 +17 +17 1017.5 944.0
12 10.09 З 4 20 км гроза без осадков {ливн. осадки} 9/9 600 м
[Cb cap]
+13.9 +7.7 66 +13 +13 1019.6 945.3
15 10.09 Ю 1 н/о {гроза} 9/9 600 м
[Cb calv]
+11.6 +8.7 82 +11 +11 1021.7 946.4 +17.5
18 10.09 ЮВ 3 н/о {гроза, ливн. осадки} 9/9 600 м
[Cb calv]
+10.2 +8.4 89 +8 +8 1021.8 946.2 +17.5 5
21 10.09 ЮВ 2 н/о 4/4 600 м
[Cb calv]
+8.4 +7.6 95 +6 +6 1022.6 946.7
00 11.09 В 2 н/о 1/1 600 м
[Cb calv]
+6.3 +5.9 97 +4 +4 1024.6 948.0
03 11.09 Ю 2 1000 м дымка 8/8 600 м
[Cb calv]
+8.6 +8.2 97 +7 +7 1024.7 948.4
06 11.09 З 2 20 км 6/6 600 м
[Cb calv]
+15.1 +7.2 59 +15 +19 1022.9 948.4 +6.2 0.4
09 11.09 СЗ 6 20 км 9 баллов +15.9 +6.1 52 +15 +15 1023.4 949.3
12 11.09 СЗ 5 20 км 9/4 600 м
[Cb calv Ac trans Ci fib]
+16.2 -4.4 24 +15 +15 1023.5 949.3
15 11.09 С 4 н/о 9/9 600 м
[Cb calv]
+12.0 +7.1 72 +10 +10 1027.4 952.0 +16.5
18 11.09 С 1 н/о 3/3 1000 м
[Sc]
+7.6 +5.4 86 +7 +7 1028.6 952.0 +16.5
21 11.09 СВ 2 н/о ясно +5.6 +4.9 95 +3 +3 1030.6 953.3
00 12.09 С 1 н/о ясно +3.9 +3.2 95 +2 +2 1031.1 953.3
03 12.09 С 3 20 км 3/1 1000 м
[Sc Ci fib]
+10.0 +5.5 74 +8 +11 1029.6 953.3
06 12.09 СЗ 3 20 км 9/9 600 м
[Cb calv]
+12.7 +3.6 54 +12 +12 1028.6 953.3 +3.5
09 12.09 С 3 20 км 9/9 600 м
[Cb calv]
+13.6 +3.1 49 +13 +13 1027.0 952.0
12 12.09 С 3 20 км 1/1 1000 м
[Sc]
+14.0 +2.6 46 +13 +14 1026.9 952.0
15 12.09 штиль 0 н/о ясно +9.3 +5.5 77 +9 +9 1026.7 950.7 +15.5
18 12.09 С 1 н/о ясно +6.4 +2.9 78 +5 +5 1026.1 949.1 +15.5
21 12.09 СВ 2 н/о ясно +3.3 +1.6 89 0 0 1025.6 947.8
00 13.09 СВ 3 н/о ясно +1.5 +0.5 93 -3 -3 1026.1 948.0
03 13.09 СВ 1 20 км 3/0
[Ac trans Ci fib]
+8.1 +2.5 68 +8 +11 1024.1 947.7
06 13.09 СЗ 3 20 км 3/1 1000 м
[Cu hum Ac trans]
+14.8 +2.3 43 +14 +21 1022.4 948.0 +1.5
09 13.09 СЗ 3 20 км 6/6 1000 м
[Sc]
+17.2 +1.2 34 +17 +20 1020.4 946.7
12 13.09 З 2 20 км 3/3 1000 м
[Sc]
+17.7 +0.8 32 +18 +19 1020.2 946.7
15 13.09 СВ 3 н/о 8/8 1000 м
[Sc]
+13.4 +3.2 50 +12 +12 1022.7 948.0 +18.2
18 13.09 СВ 2 н/о 1/1 1000 м
[Sc]
+8.7 +2.9 67 +7 +7 1024.0 948.0 +18.2
21 13.09 С 2 н/о 9/8 1000 м
[Sc Ac trans]
+6.4 +3.2 80 +4 +4 1023.3 946.7
00 14.09 СВ 3 н/о 9/8 1000 м
[Sc Ac trans]
+9.0 +2.6 64 +7 +7 1022.5 946.7
03 14.09 С 1 20 км 8/8 1000 м
[Sc]
+14.1 +5.4 56 +15 +15 1021.5 946.8
06 14.09 СВ 1 20 км 8/3 1000 м
[Cu hum Ac trans]
+18.7 +3.3 36 +20 +24 1019.9 946.7 +6.0
09 14.09 СВ 1 20 км 8/8 600 м
[Cb calv]
+19.3 +3.9 36 +21 +23 комфорт 1019.8 946.7
12 14.09 С 4 20 км 4/3 1000 м
[Sc Ac trans]
+18.4 +4.2 39 +18 +19 1018.5 945.3
15 14.09 СВ 3 н/о 1/1 1000 м
[Sc]
+13.4 +4.5 55 +12 +12 1021.3 946.7 +20.5
18 14.09 СВ 3 н/о ясно +11.6 +4.8 63 +10 +10 1021.8 946.7 +20.5
21 14.09 СВ 4 н/о ясно +8.0 +4.6 79 +5 +5 1021.3 945.3
00 15.09 СВ 2 н/о ясно +5.8 +4.0 88 +3 +3 1023.4 946.7
03 15.09 С 3 20 км ясно +14.6 +5.6 55 +14 +17 1019.4 945.0
06 15.09 С 4 20 км ясно +18.9 +3.9 37 +19 +26 1018.4 945.3 +5.8
09 15.09 С 3 20 км 2 балла +21.4 +3.6 31 +22 +26 комфорт 1016.3 944.0
12 15.09 В 3 20 км 3/1 1000 м
[Sc Ci fib]
+21.0 +3.2 31 +22 +22 комфорт 1016.4 944.0
15 15.09 В 4 н/о 2 балла +15.7 +1.4 38 +15 +15 1019.2 945.3 +22.0
18 15.09 СВ 4 н/о 3/3 1000 м
[Sc]
+11.2 +2.5 55 +9 +9 1020.4 945.3 +22.0

 

Местоположение метеостанции Баршатас (Восточно-Казахстанская область, Казахстан): широта 48.17 долгота 78.67 высота над уровнем моря 643 м.

В архиве по умолчанию представлена погода в Баршатасе за последнюю неделю. Архивные данные за месяц целиком и за предыдущие месяцы, начиная с января 2011 года, Вы можете получить, выбрав интересующий диапазон дат из раскрывающегося списка и нажав кнопку "Ввод!".


*Определитесь, кто Вы:
робот инопланетянин человек

Внимание! Время в таблицах - всемирное. Для получения местного времени необходимо прибавить поправку, которая равна 5 ч.

Смотрите также архив погоды в соседних городах и на ближайших метеорологических станциях:

Погода в Карауле (Восточно-Казахстанская область, Казахстан) (104 км)
Погода в Аягозе (Восточно-Казахстанская область, Казахстан) (134 км)
Погода в Кайнаре (Восточно-Казахстанская область, Казахстан) (149 км)
Погода в Саяке (Карагандинская область, Казахстан) (156 км)
Погода в Актогае (Восточно-Казахстанская область, Казахстан) (181 км)
Погода в Каракуме (Алматинская область, Казахстан) (214 км)
Погода в Жангизтобе (Восточно-Казахстанская область, Казахстан) (221 км)
Погода на Острове Алгазы (Алматинская область, Казахстан) (226 км)
Погода в Шаре (Восточно-Казахстанская область, Казахстан) (234 км)
Погода в Егиндыбулаке (Карагандинская область, Казахстан) (245 км)

Пояснения к столбцам:

Ветер - указаны скорость ветра в м/с - средняя за 10 мин, порывы в срок и между сроками (в фигурных скобках) и направление, откуда дует ветер: С - северный, СВ - северо-восточный, В - восточный, ЮВ - юго-восточный, Ю - южный, ЮЗ - юго-западный, З - западный, СЗ - северо-западный.
Видимость - горизонтальная дальность видимости в метрах или километрах. При видимости от 1 до 10 км при отсутствии осадков обычно наблюдается дымка, при ухудшении видимости до 1 км и менее - туман. В сухую погоду видимость может ухудшаться дымом, пылью или мглою.
Явления - указаны атмосферные явления, наблюдавшиеся в срок или в последний час перед сроком; фигурными скобками обозначены явления, наблюдавшиеся между сроками (за 1-3 часа до срока); квадратными скобками обозначены град или гололедные отложения с указанием их диаметра в мм.
Облачность - указаны через наклонную черту общая и нижняя облачность в баллах и высота нижней границы облаков в метрах; квадратными скобками обозначены формы облаков: Ci - перистые, Cs - перисто-слоистые, Cc - перисто-кучевые, Ac - высококучевые, As - высокослоистые, Sc - слоисто-кучевые, Ns - слоисто-дождевые, Cu - кучевые, Cb - кучево-дождевые. Подробнее классификацию облаков см. в Атласе облаков (PDF).
T - Температура воздуха - температура, измеренная на высоте 2 м над землей.
Td - Температура точки росы - температура, при понижении до которой содержащийся в воздухе водяной пар достигнет насыщения.
f - Относительная влажность воздуха - влажноcть воздуха, измеренная на высоте 2 м над землей.
Te - Эффективная температура - температура, которую ощущает одетый по сезону человек в тени. Характеристика душности погоды. При расчете учитывается влияние влажности воздуха и скорости ветра на теплоощущения человека.
Tes - Эффективная температура на солнце - температура, которую ощущает человек, с поправкой на солнечный нагрев. Характеристика знойности погоды. Зависит от высоты солнца над горизонтом, облачности и скорости ветра. Ночью, в пасмурную погоду, а также при ветре 12 м/с и более поправка равна нулю.
P - Атмосферное давление - приведенное к уровню моря атмосферное давление.
Po - Атмосферное давление - измеренное на уровне метеостанции атмосферное давление.
Tmin - Минимальная температура - минимум температуры воздуха на высоте 2 м над землей.
Tmax - Максимальная температура - максимум температуры воздуха на высоте 2 м над землей.
R - Количество осадков - Количество выпавших осадков за период времени, мм. При наведении курсора мыши на число - период времени, за который выпало указанное количество осадков.
R24 - Количество осадков - Количество выпавших осадков за 24 часа, мм.
S - Снежный покров - Высота снежного покрова, см. При наведении курсора мыши на число - состояние снежного покрова и степень покрытия местности в баллах.